Terminal Aerodrome Forecast
Issued by NWS

Home | Current Version | Previous Version | Text Only | Print | Product List | Glossary On
Versions: 1 2 3 4 5 6 7 8 9 10 11 12 13
000
FTUS45 KREV 251133
TAFCXP
TAF
KCXP 251133Z 2512/2612 30006KT P6SM FEW090 BKN150
     FM252000 05007KT P6SM SCT150
     FM260100 28009KT P6SM SCT080 BKN150
     FM260400 VRB04KT P6SM SCT060 BKN120=

USA.gov is the U.S. government's official web portal to all federal, state and local government web resources and services.